Погода в Кирьят-Гат

Израиль     31°36′39″N   34°46′21″E
темп.,
°C
ветер,
м/с
пор.,
м/с
влажн.,
%
обл.,
%
осадки,
мм/ч
давл.,
гПа
погр.,
м
17 мая, пн
пн1700:00+24св11330 0.0 100711
03:00+21ссз3452100 0.0 100869
06:00+20ссв3466100 0.0 100977
09:00+24ссз44475 0.0 1011665
12:00+27сз64365 0.0 10111090
15:00+27сз763936 0.0 10111051
18:00+24ссз66545 0.0 1012756
21:00+20ссз34710 0.0 1013277
18 мая, вт
вт1800:00+19с22760 0.0 101470
03:00+17с22820 0.0 101328
06:00+17всв11860 0.0 101412
09:00+22сз22590 0.0 1014609
12:00+27ссз54360 0.0 10141095
15:00+28ссз75370 0.0 10131012
18:00+24ссз77490 0.0 1013662
21:00+20с46740 0.0 1014248
19 мая, ср
ср1900:00+19с22800 0.0 101450
03:00+18с22860 0.0 101313
06:00+17с11860 0.0 101311
09:00+24с45470 0.0 1013494
12:00+30с66290 0.0 1012984
15:00+30ссз87350 0.0 1011845
18:00+26с89440 0.0 1010555
21:00+21с48750 0.0 1011215
20 мая, чт
чт2000:00+20с34830 0.0 101197
03:00+19ссв22820 0.0 101021
06:00+18с22820 0.0 101019
09:00+24ссз34510 0.0 1011439
12:00+31ссз76310 0.0 1010883
15:00+30ссз88340 0.0 1008765
18:00+26ссз911450 0.0 1008532
21:00+22сз3474100 0.0 1010148
21 мая, пт
пт2100:00+21с24803 0.0 1010126
03:00+20с358973 0.0 1009149
06:00+19юз01952 0.0 101011
09:00+25ссз34580 0.0 1010558
12:00+30ссз66350 0.0 1009983
15:00+29сз76360 0.0 1009933
18:00+26ссз66410 0.0 1009561
21:00+22ссз34670 0.0 1010117